Find OneWeb SL0425

NORAD ID: 51628 Int'l Des: 2022-012 Owner: ONEWEBN Country: UK Constellation: oneweb operational
LEOCIRCULARPOLARONEWEB_TYPE

現在のビュー

3D地球を読み込み中...

About OneWeb SL0425

OneWeb SL0425 (NORAD 51628) is a oneweb constellation satellite launched Feb 10, 2022 by ONEWEBN of UK. It operates in LEO, CIRCULAR, POLAR, ONEWEB_TYPE orbit with a mass of 148.00 kg.

OneWeb SL0425について

説明を読み込み中...

次回通過

Passes for default location (London). Set your location on the main map for personalized predictions.

高度履歴

Loading altitude history...

軌道要素

1 51628U 22012G 26170.16953748 -.00001036 00000-0 -30092-2 0 9996
2 51628 87.8827 35.8723 0002024 75.5936 284.5416 13.10240886209582
Epoch: Jun 19, 2026 • Age: 5 hours

現在のステータス

高度 1238.6 km
速度 7.23 km/s
衛星直下点 -39.62°S, 177.22°E
打ち上げ日 Feb 10, 2022
運用期間 4.3 years
タイプ internet

技術仕様

分類 Payload
質量 148.00 kg
乾燥質量 140.00 kg
総質量 148.00 kg
長さ 1.30 m
直径 1.00 m
スパン 5.00 m
形状 Trapezoid+2 pan
製造者 ONEWUS
バスタイプ ARROW
フェーズステータス In Orbit
所有者/国 ONEWEBN/UK

Most Searched